Change the Weather History Date:

Thursday, February 21, 2013

  Actual Average Record
Temperature  
Mean Temperature 2 °F -  
Max Temperature 9 °F 15 °F 32 °F (1998)
Min Temperature -6 °F -5 °F -36 °F (1997)
Degree Days  
Heating Degree Days 64    
Moisture  
Dew Point -1 °F    
Average Humidity 73    
Maximum Humidity 92    
Minimum Humidity 35    
Precipitation  
Precipitation 0.08 in 0.03 in - ()
Sea Level Pressure  
Sea Level Pressure 30.39 in    
Wind  
Wind Speed 8 mph ()    
Max Wind Speed 12 mph    
Max Gust Speed 17 mph    
Visibility 6.4 miles    
Events Snow    
Averages and records for this station are not official NWS values.
T = Trace of Precipitation, MM = Missing Value Source: Averaged Metar Reports

Daily Weather History Graph

Daily Weather History Graph

Search for Another Location

Airport or City:

Trip Planner

Search our weather history database for the weather conditions in past years. The results will help you decide how hot, cold, wet, or windy it might be!

Date:

Astronomy

Feb. 21, 2013 Rise Set
Actual Time 7:41 AM CST 5:49 PM CST
Civil Twilight 7:03 AM CST 6:27 PM CST
Nautical Twilight 6:20 AM CST 7:10 PM CST
Astronomical Twilight 5:37 AM CST 7:53 PM CST
Moon 1:37 PM CST (2/21) 5:17 AM CST (2/21)
Length of Visible Light 11h 24m
Length of Day
10h 08m
Waxing Gibbous, 84% of the Moon is Illuminated
Feb 21
Waxing Gibbous
Feb 25
Full
Mar 4
Last Quarter
Mar 11
New
Mar 19
First Quarter

Hourly Weather History & Observations

Time (CST) Temp. Windchill Dew Point Humidity Pressure Visibility Wind Dir Wind Speed Gust Speed Precip Events Conditions
12:00 AM 2 °F - -12 °F 35% 30.47 in 10 mi SE 11.5 mph - -   Overcast
12:00 AM 1.4 °F -14.5 °F -11.2 °F 56% 30.47 in 10.0 mi SE 10.4 mph 17.3 mph N/A   Overcast
12:10 AM - - - N/A% - 10.0 mi SE 10.4 mph - N/A   Unknown
1:00 AM 1.4 °F -14.5 °F -11.2 °F 56% 30.45 in 8.0 mi SSE 10.4 mph - N/A Snow Light Snow
2:00 AM 1.4 °F -14.5 °F -5.8 °F 72% 30.45 in 4.0 mi SSE 10.4 mph - N/A Snow Light Snow
3:00 AM 1.4 °F -13.5 °F -4.0 °F 78% 30.43 in 3.0 mi SSE 9.2 mph - N/A Snow Light Snow
4:00 AM 1.4 °F -13.5 °F -4.0 °F 78% 30.43 in 4.0 mi SSE 9.2 mph - N/A Snow Light Snow
5:00 AM 3.2 °F -9.1 °F -4.0 °F 72% 30.43 in 4.0 mi SSE 6.9 mph - N/A Snow Light Snow
6:00 AM 2 °F - -3 °F 67% 30.43 in 4 mi SE 6.9 mph - - Snow Light Snow
6:00 AM 3.2 °F -10.3 °F -4.0 °F 72% 30.43 in 4.0 mi SE 8.1 mph - N/A Snow Light Snow
7:00 AM 3.2 °F -9.1 °F -2.2 °F 78% 30.43 in 4.0 mi SE 6.9 mph - N/A Snow Light Snow
8:00 AM 3.2 °F -9.1 °F -2.2 °F 78% 30.42 in 4.0 mi SE 6.9 mph - N/A Snow Light Snow
9:00 AM 3.2 °F -11.3 °F -2.2 °F 78% 30.41 in 4.0 mi SSE 9.2 mph - N/A Snow Light Snow
10:00 AM 5.0 °F -6.9 °F -0.4 °F 78% 30.40 in 5.0 mi SSE 6.9 mph - N/A Snow Light Snow
11:00 AM 5.0 °F -6.9 °F 3.2 °F 92% 30.39 in 12.0 mi SE 6.9 mph - N/A Snow Light Snow
12:00 PM 7 °F - -0 °F 61% 30.37 in 6 mi SSE 11.5 mph - - Snow Light Snow
12:00 PM 6.8 °F -7.8 °F -0.4 °F 72% 30.37 in 6.0 mi SSE 10.4 mph - N/A Snow Light Snow
1:00 PM 8.6 °F -5.5 °F 1.4 °F 73% 30.36 in 5.0 mi SSE 10.4 mph - N/A Snow Light Snow
2:00 PM 8.6 °F -3.7 °F 1.4 °F 73% 30.36 in 4.0 mi South 8.1 mph - N/A Snow Light Snow
3:00 PM 8.6 °F -3.7 °F 1.4 °F 73% 30.35 in 4.0 mi South 8.1 mph - N/A Snow Light Snow
4:00 PM 8.6 °F -2.6 °F -7.6 °F 48% 30.34 in 6.0 mi South 6.9 mph - N/A Snow Light Snow
6:00 PM 9 °F - 4 °F 72% 30.35 in 11 mi South 5.8 mph - - Snow Light Snow
6:00 PM 8.6 °F -1.3 °F 5.0 °F 85% 30.35 in 5.0 mi South 5.8 mph - N/A Snow Light Snow
7:00 PM 8.6 °F 2.0 °F 5.0 °F 85% 30.34 in 6.0 mi South 3.5 mph - N/A Snow Light Snow
8:00 PM 9 °F - 4 °F 72% 30.35 in 5 mi South 5.8 mph - - Snow Light Snow
8:00 PM 8.6 °F 2.0 °F 3.2 °F 79% 30.33 in 8.0 mi South 3.5 mph - N/A Snow Light Snow
9:00 PM 6.8 °F -0.1 °F 3.2 °F 85% 30.33 in 10.0 mi SSE 3.5 mph - N/A Snow Light Snow
10:00 PM 6.8 °F -2.0 °F 3.2 °F 85% 30.32 in 10.0 mi SSE 4.6 mph - N/A Snow Light Snow
11:00 PM 6.8 °F -0.1 °F 3.2 °F 85% 30.32 in 10.0 mi SSE 3.5 mph - N/A Snow Light Snow